Date,TemperatureHighF,TemperatureAvgF,TemperatureLowF,DewpointHighF,DewpointAvgF,DewpointLowF,HumidityHigh,HumidityAvg,HumidityLow,PressureMaxIn,PressureMinIn,WindSpeedMaxMPH,WindSpeedAvgMPH,GustSpeedMaxMPH,PrecipitationSumIn
2013-1-1,69,61,50,67,57,45,95,87,75,30.13,29.81,21,7,0,0.05
2013-1-2,50,44,41,45,40,38,92,85,73,30.27,30.10,15,7,0,0.25
2013-1-3,50,46,43,38,37,34,83,70,55,30.34,30.23,14,7,0,0.00
2013-1-4,50,48,45,43,40,37,93,73,67,30.38,30.28,17,9,0,0.01
2013-1-5,50,48,45,46,43,39,92,84,69,30.31,30.20,14,7,0,0.01
2013-1-6,61,51,44,47,45,42,93,81,57,30.31,30.21,11,4,0,0.00
2013-1-7,60,52,43,56,48,-100,96,88,78,30.26,29.94,13,-5,0,0.01
2013-1-8,68,63,57,67,62,56,98,96,93,29.94,29.71,19,5,0,0.06
2013-1-9,68,63,56,68,61,55,97,94,87,29.99,29.76,11,4,0,0.70
2013-1-10,67,58,52,56,52,49,97,83,58,30.06,29.97,11,3,0,0.70
2013-1-11,76,64,51,70,62,50,98,94,80,30.00,29.77,11,2,0,0.01
2013-1-12,76,71,68,72,70,68,98,95,84,29.80,29.60,18,6,0,0.01
2013-1-13,71,56,47,70,46,38,96,73,50,30.05,29.67,21,9,0,0.01
2013-1-14,51,46,43,44,41,37,95,82,68,30.14,30.01,13,7,0,0.00
2013-1-15,46,44,42,45,41,37,96,91,81,30.18,29.99,16,8,0,0.06
2013-1-16,57,45,37,37,29,20,81,55,23,30.33,30.17,18,7,0,0.01
2013-1-17,65,48,34,44,36,27,94,65,36,30.41,30.27,14,3,0,0.01
2013-1-18,66,52,41,50,46,39,95,80,52,30.45,30.27,9,2,0,0.00
2013-1-19,72,59,47,57,51,45,97,78,47,30.27,30.11,8,2,0,0.01
2013-1-20,72,60,48,60,54,47,98,82,58,30.20,30.05,10,2,0,0.00
2013-1-21,71,61,53,61,54,50,97,82,50,30.18,30.06,6,2,0,0.01
2013-1-22,72,61,51,60,55,49,97,83,57,30.24,30.12,10,2,0,0.01
2013-1-23,77,65,57,67,61,56,98,87,66,30.28,30.17,12,2,0,0.01
2013-1-24,79,67,59,67,62,58,98,87,63,30.24,30.09,13,3,0,0.01
2013-1-25,78,68,59,67,64,59,98,87,67,30.12,29.99,14,4,0,0.01
2013-1-26,77,68,63,66,63,62,97,85,63,30.09,29.99,13,4,0,0.01
2013-1-27,77,69,64,71,67,61,97,92,80,30.04,29.91,18,5,0,0.01
2013-1-28,78,71,68,71,68,67,97,92,80,30.02,29.85,16,8,0,0.00
2013-1-29,82,73,68,71,68,45,97,86,40,29.86,29.54,18,8,0,0.00
2013-1-30,70,62,55,44,26,12,42,27,12,30.19,29.70,22,11,0,0.00
2013-1-31,70,54,38,49,35,23,85,52,21,30.28,30.17,10,2,0,0.00